• In United Kingdom
  • List of Countries
  • For 7 days
  • Water Temperature
  • Satellite Maps
  • Weather Map
  • Weather Widgets
  • user-avatar
    Login

    Hourly Weather Megri

    Today, 20 April, Friday

    Time Temperature Precipitation Wind Pressure Humidity
    00:00 +10°C° 0 mm 2 mps 619 mmHg 54%
    01:00 +10°C° 0.2 mm 2 mps 618 mmHg 55%
    02:00 +9°C° 0.2 mm 2 mps 618 mmHg 57%
    03:00 +10°C° 0 mm 1 mps 617 mmHg 59%
    04:00 +9°C° 0 mm 2 mps 617 mmHg 58%
    05:00 +9°C° 0 mm 2 mps 617 mmHg 58%
    06:00 +9°C° 0 mm 2 mps 617 mmHg 57%
    07:00 +11°C° 0 mm 3 mps 617 mmHg 49%
    08:00 +13°C° 0 mm 4 mps 618 mmHg 41%
    09:00 +15°C° 0 mm 5 mps 618 mmHg 33%
    10:00 +16°C° 0 mm 6 mps 618 mmHg 30%
    11:00 +16°C° 0 mm 7 mps 618 mmHg 27%
    12:00 +17°C° 0 mm 8 mps 618 mmHg 24%
    13:00 +17°C° 0.1 mm 8 mps 618 mmHg 25%
    14:00 +17°C° 0.1 mm 8 mps 618 mmHg 26%
    15:00 +17°C° 0.1 mm 8 mps 617 mmHg 27%
    16:00 +15°C° 0.3 mm 6 mps 617 mmHg 33%
    17:00 +14°C° 0.3 mm 5 mps 616 mmHg 40%
    18:00 +13°C° 0.3 mm 3 mps 616 mmHg 46%
    19:00 +12°C° 0.1 mm 3 mps 615 mmHg 50%
    20:00 +12°C° 0.1 mm 2 mps 615 mmHg 55%
    21:00 +10°C° 0.1 mm 2 mps 614 mmHg 60%
    22:00 +9°C° 0.1 mm 2 mps 614 mmHg 63%
    23:00 +9°C° 0.1 mm 2 mps 614 mmHg 66%

    Tomorrow, 21 April, Saturday

    Time Temperature Precipitation Wind Pressure Humidity
    00:00 +8°C° 0.1 mm 2 mps 614 mmHg 69%
    01:00 +8°C° 0.1 mm 2 mps 614 mmHg 72%
    02:00 +7°C° 0.1 mm 2 mps 614 mmHg 75%
    03:00 +7°C° 0.1 mm 1 mps 614 mmHg 78%
    04:00 +6°C° 0 mm 2 mps 614 mmHg 78%
    05:00 +6°C° 0 mm 2 mps 614 mmHg 78%
    06:00 +6°C° 0 mm 2 mps 614 mmHg 78%
    07:00 +7°C° 0.1 mm 2 mps 615 mmHg 71%
    08:00 +8°C° 0.1 mm 2 mps 616 mmHg 64%
    09:00 +9°C° 0.1 mm 2 mps 616 mmHg 57%
    10:00 +10°C° 0.3 mm 2 mps 616 mmHg 56%
    11:00 +10°C° 0.3 mm 2 mps 617 mmHg 54%
    12:00 +11°C° 0.3 mm 3 mps 617 mmHg 52%
    13:00 +10°C° 0.5 mm 3 mps 617 mmHg 55%
    14:00 +10°C° 0.5 mm 3 mps 616 mmHg 58%
    15:00 +8°C° 0.5 mm 4 mps 616 mmHg 60%
    16:00 +7°C° 0.7 mm 4 mps 616 mmHg 64%
    17:00 +6°C° 0.7 mm 4 mps 616 mmHg 68%
    18:00 +5°C° 0.7 mm 4 mps 616 mmHg 72%
    19:00 +5°C° 0.4 mm 3 mps 616 mmHg 73%
    20:00 +5°C° 0.4 mm 3 mps 617 mmHg 74%
    21:00 +4°C° 0.4 mm 3 mps 617 mmHg 76%
    22:00 +4°C° 0.7 mm 3 mps 617 mmHg 77%
    23:00 +4°C° 0.7 mm 3 mps 617 mmHg 79%

    Day after tomorrow, 22 April, Sunday

    Time Temperature Precipitation Wind Pressure Humidity
    00:00 +4°C° 0.7 mm 2 mps 617 mmHg 80%
    01:00 +4°C° 0.5 mm 2 mps 617 mmHg 81%
    02:00 +4°C° 0.5 mm 2 mps 617 mmHg 81%
    03:00 +4°C° 0.5 mm 2 mps 617 mmHg 82%
    04:00 +4°C° 0.1 mm 2 mps 617 mmHg 81%
    05:00 +4°C° 0.1 mm 2 mps 617 mmHg 81%
    06:00 +5°C° 0.1 mm 1 mps 617 mmHg 81%
    07:00 +6°C° 0 mm 1 mps 618 mmHg 77%
    08:00 +8°C° 0 mm 1 mps 618 mmHg 74%
    09:00 +9°C° 0 mm 1 mps 619 mmHg 70%
    10:00 +9°C° 0 mm 2 mps 619 mmHg 64%
    11:00 +12°C° 0 mm 2 mps 619 mmHg 59%
    12:00 +13°C° 0 mm 2 mps 619 mmHg 53%
    13:00 +14°C° 0.1 mm 2 mps 619 mmHg 51%
    14:00 +14°C° 0.1 mm 2 mps 619 mmHg 48%
    15:00 +14°C° 0.1 mm 3 mps 619 mmHg 46%
    16:00 +14°C° 0 mm 2 mps 618 mmHg 50%
    17:00 +13°C° 0 mm 2 mps 618 mmHg 54%
    18:00 +12°C° 0 mm 2 mps 618 mmHg 58%
    19:00 +12°C° 0.3 mm 2 mps 618 mmHg 63%
    20:00 +10°C° 0.3 mm 2 mps 619 mmHg 68%
    21:00 +9°C° 0.3 mm 2 mps 619 mmHg 72%
    22:00 +9°C° 0.4 mm 2 mps 618 mmHg 74%
    23:00 +10°C° 0.4 mm 1 mps 618 mmHg 75%

    23 April, Monday

    Time Temperature Precipitation Wind Pressure Humidity
    00:00 +9°C° 0.4 mm 1 mps 618 mmHg 77%
    01:00 +9°C° 0 mm 1 mps 617 mmHg 78%
    02:00 +8°C° 0 mm 2 mps 617 mmHg 80%
    03:00 +7°C° 0 mm 2 mps 616 mmHg 81%
    04:00 +7°C° 0.3 mm 2 mps 616 mmHg 82%
    05:00 +7°C° 0.3 mm 2 mps 616 mmHg 82%
    06:00 +7°C° 0.3 mm 3 mps 616 mmHg 82%
    07:00 +7°C° 0.9 mm 3 mps 617 mmHg 81%
    08:00 +7°C° 0.9 mm 3 mps 617 mmHg 79%
    09:00 +7°C° 0.9 mm 3 mps 617 mmHg 78%
    10:00 +7°C° 0.7 mm 3 mps 617 mmHg 75%
    11:00 +7°C° 0.7 mm 3 mps 617 mmHg 72%
    12:00 +8°C° 0.7 mm 3 mps 617 mmHg 70%
    13:00 +8°C° 0.3 mm 3 mps 617 mmHg 68%
    14:00 +8°C° 0.3 mm 3 mps 617 mmHg 67%
    15:00 +8°C° 0.3 mm 3 mps 617 mmHg 65%
    16:00 +8°C° 0.2 mm 3 mps 617 mmHg 66%
    17:00 +8°C° 0.2 mm 3 mps 617 mmHg 68%
    18:00 +7°C° 0.2 mm 3 mps 618 mmHg 69%
    19:00 +7°C° 0.3 mm 3 mps 618 mmHg 72%
    20:00 +6°C° 0.3 mm 2 mps 619 mmHg 75%
    21:00 +6°C° 0.3 mm 2 mps 619 mmHg 78%
    22:00 +5°C° 0.1 mm 2 mps 619 mmHg 78%
    23:00 +5°C° 0.1 mm 2 mps 619 mmHg 78%

    24 April, Tuesday

    Time Temperature Precipitation Wind Pressure Humidity
    00:00 +6°C° 0.1 mm 1 mps 619 mmHg 79%
    01:00 +5°C° 0 mm 1 mps 619 mmHg 79%
    02:00 +5°C° 0 mm 1 mps 619 mmHg 79%
    03:00 +5°C° 0 mm 1 mps 619 mmHg 79%
    04:00 +5°C° 0 mm 1 mps 619 mmHg 77%
    05:00 +5°C° 0 mm 1 mps 620 mmHg 75%
    06:00 +6°C° 0 mm 1 mps 620 mmHg 73%
    07:00 +7°C° 0 mm 1 mps 621 mmHg 66%
    08:00 +9°C° 0 mm 1 mps 622 mmHg 59%
    09:00 +11°C° 0 mm 1 mps 623 mmHg 51%
    10:00 +12°C° 0 mm 2 mps 623 mmHg 48%
    11:00 +12°C° 0 mm 3 mps 623 mmHg 44%
    12:00 +13°C° 0 mm 3 mps 624 mmHg 41%
    13:00 +14°C° 0 mm 3 mps 624 mmHg 39%
    14:00 +14°C° 0 mm 3 mps 624 mmHg 37%
    15:00 +16°C° 0 mm 3 mps 624 mmHg 36%
    16:00 +15°C° 0 mm 2 mps 624 mmHg 38%
    17:00 +15°C° 0 mm 2 mps 624 mmHg 40%
    18:00 +14°C° 0 mm 1 mps 624 mmHg 42%
    19:00 +13°C° 0 mm 1 mps 624 mmHg 47%
    20:00 +12°C° 0 mm 1 mps 624 mmHg 51%
    21:00 +10°C° 0 mm 1 mps 624 mmHg 56%
    22:00 +10°C° 0 mm 1 mps 624 mmHg 57%
    23:00 +9°C° 0 mm 1 mps 623 mmHg 57%

    25 April, Wednesday

    Time Temperature Precipitation Wind Pressure Humidity
    00:00 +9°C° 0 mm 1 mps 623 mmHg 58%
    01:00 +9°C° 0 mm 1 mps 623 mmHg 58%
    02:00 +8°C° 0 mm 1 mps 623 mmHg 58%
    03:00 +8°C° 0 mm 1 mps 623 mmHg 57%
    04:00 +9°C° 0 mm 1 mps 623 mmHg 57%
    05:00 +9°C° 0 mm 1 mps 623 mmHg 56%
    06:00 +9°C° 0 mm 1 mps 624 mmHg 55%
    07:00 +11°C° 0 mm 1 mps 624 mmHg 50%
    08:00 +13°C° 0 mm 1 mps 625 mmHg 46%
    09:00 +15°C° 0 mm 1 mps 625 mmHg 42%
    10:00 +16°C° 0 mm 1 mps 625 mmHg 40%
    11:00 +17°C° 0 mm 2 mps 625 mmHg 37%
    12:00 +18°C° 0 mm 2 mps 625 mmHg 34%
    13:00 +18°C° 0 mm 3 mps 625 mmHg 32%
    14:00 +19°C° 0 mm 3 mps 625 mmHg 29%
    15:00 +19°C° 0 mm 3 mps 624 mmHg 27%
    16:00 +18°C° 0 mm 3 mps 624 mmHg 29%
    17:00 +17°C° 0 mm 2 mps 624 mmHg 31%
    18:00 +17°C° 0 mm 2 mps 623 mmHg 33%
    19:00 +16°C° 0 mm 1 mps 623 mmHg 37%
    20:00 +15°C° 0 mm 1 mps 623 mmHg 40%
    21:00 +14°C° 0 mm 1 mps 623 mmHg 44%
    22:00 +13°C° 0 mm 1 mps 623 mmHg 46%
    23:00 +13°C° 0 mm 1 mps 622 mmHg 47%
    Show more